Time,TemperatureF,DewpointF,PressureIn,WindDirection,WindDirectionDegrees,WindSpeedMPH,WindSpeedGustMPH,Humidity,HourlyPrecipIn,Conditions,Clouds,dailyrainin,SoftwareType,DateUTC
2013-07-31 00:32:00,68.0,65.0,30.14,SSE,149,0.0,0.0,90,0.00,,,0.00,,2013-07-31 04:32:00,
2013-07-31 00:42:00,68.0,65.0,30.13,SSE,149,0.0,0.0,90,0.00,,,0.00,,2013-07-31 04:42:00,
2013-07-31 00:52:00,68.0,65.0,30.13,SSE,149,0.0,0.0,90,0.00,,,0.00,,2013-07-31 04:52:00,
2013-07-31 01:02:00,68.0,65.0,30.13,SSE,149,0.0,0.0,90,0.00,,,0.00,,2013-07-31 05:02:00,
2013-07-31 01:32:00,67.0,64.0,30.14,SSE,149,0.0,0.0,91,0.00,,,0.00,,2013-07-31 05:32:00,
2013-07-31 02:02:00,67.0,65.0,30.14,SSE,149,0.0,0.0,93,0.00,,,0.00,,2013-07-31 06:02:00,
2013-07-31 02:12:00,67.0,65.0,30.14,SSE,149,0.0,0.0,93,0.00,,,0.00,,2013-07-31 06:12:00,
2013-07-31 02:22:00,67.0,65.0,30.14,SSE,149,0.0,0.0,93,0.00,,,0.00,,2013-07-31 06:22:00,
2013-07-31 02:32:00,66.0,64.0,30.14,SSE,149,0.0,0.0,93,0.00,,,0.00,,2013-07-31 06:32:00,
2013-07-31 02:43:00,66.0,64.0,30.14,SSE,149,0.0,0.0,93,0.00,,,0.00,,2013-07-31 06:43:00,
2013-07-31 02:53:00,66.0,64.0,30.14,SSE,149,0.0,0.0,93,0.00,,,0.00,,2013-07-31 06:53:00,
2013-07-31 03:02:00,66.0,64.0,30.13,SSE,149,0.0,0.0,93,0.00,,,0.00,,2013-07-31 07:02:00,
2013-07-31 03:12:00,66.0,64.0,30.13,SSE,149,0.0,0.0,93,0.00,,,0.00,,2013-07-31 07:12:00,
2013-07-31 03:22:00,66.0,64.0,30.13,SSE,149,0.0,0.0,93,0.00,,,0.00,,2013-07-31 07:22:00,
2013-07-31 03:32:00,66.0,64.0,30.13,SSE,149,0.0,0.0,94,0.00,,,0.00,,2013-07-31 07:32:00,
2013-07-31 03:43:00,66.0,64.0,30.13,SSE,149,0.0,0.0,94,0.00,,,0.00,,2013-07-31 07:43:00,
2013-07-31 03:52:00,67.0,66.0,30.13,SSE,149,0.0,0.0,95,0.00,,,0.00,,2013-07-31 07:52:00,
2013-07-31 04:02:00,68.0,67.0,30.13,SSE,149,0.0,0.0,95,0.00,,,0.00,,2013-07-31 08:02:00,
2013-07-31 04:12:00,68.0,67.0,30.13,SSE,149,0.0,0.0,95,0.00,,,0.00,,2013-07-31 08:12:00,
2013-07-31 04:22:00,70.0,68.0,30.13,SSE,149,0.0,0.0,93,0.00,,,0.00,,2013-07-31 08:22:00,
2013-07-31 04:32:00,70.0,67.0,30.12,SSE,149,0.0,0.0,91,0.00,,,0.00,,2013-07-31 08:32:00,
2013-07-31 04:42:00,70.0,67.0,30.12,SSE,149,0.0,0.0,91,0.00,,,0.00,,2013-07-31 08:42:00,
2013-07-31 04:53:00,69.0,66.0,30.12,SSE,149,0.0,0.0,90,0.00,,,0.00,,2013-07-31 08:53:00,
2013-07-31 05:02:00,69.0,66.0,30.12,SSE,149,0.0,0.0,91,0.00,,,0.00,,2013-07-31 09:02:00,
2013-07-31 05:12:00,69.0,66.0,30.12,SSE,149,0.0,0.0,91,0.00,,,0.00,,2013-07-31 09:12:00,
2013-07-31 05:32:00,68.0,65.0,30.13,SSE,149,0.0,0.0,91,0.00,,,0.00,,2013-07-31 09:32:00,
2013-07-31 05:44:00,68.0,66.0,30.13,SSE,149,0.0,0.0,93,0.00,,,0.00,,2013-07-31 09:44:00,
2013-07-31 05:52:00,68.0,66.0,30.13,SSE,149,0.0,0.0,93,0.00,,,0.00,,2013-07-31 09:52:00,
2013-07-31 06:02:00,68.0,66.0,30.13,SSE,149,0.0,0.0,93,0.00,,,0.00,,2013-07-31 10:02:00,
2013-07-31 06:12:00,68.0,66.0,30.13,SSE,149,0.0,0.0,93,0.00,,,0.00,,2013-07-31 10:12:00,
2013-07-31 06:22:00,68.0,66.0,30.14,SSE,149,0.0,0.0,93,0.00,,,0.00,,2013-07-31 10:22:00,
2013-07-31 06:44:00,68.0,66.0,30.14,West,266,0.0,0.0,94,0.00,,,0.00,,2013-07-31 10:44:00,
2013-07-31 06:52:00,68.0,66.0,30.14,West,266,0.0,0.0,94,0.00,,,0.00,,2013-07-31 10:52:00,
2013-07-31 07:03:00,68.0,66.0,30.14,West,266,0.0,0.0,94,0.00,,,0.00,,2013-07-31 11:03:00,
2013-07-31 07:12:00,68.0,67.0,30.14,NNE,13,0.0,0.0,95,0.00,,,0.00,,2013-07-31 11:12:00,
2013-07-31 07:33:00,69.0,68.0,30.14,NNE,13,0.0,0.0,95,0.00,,,0.00,,2013-07-31 11:33:00,
2013-07-31 07:43:00,69.0,68.0,30.15,NNE,13,0.0,0.0,96,0.00,,,0.00,,2013-07-31 11:43:00,
2013-07-31 07:53:00,70.0,69.0,30.14,NNE,13,0.0,0.0,96,0.00,,,0.00,,2013-07-31 11:53:00,
2013-07-31 08:03:00,71.0,70.0,30.14,NE,40,0.0,0.0,96,0.00,,,0.00,,2013-07-31 12:03:00,
2013-07-31 08:12:00,71.0,70.0,30.14,NE,40,0.0,0.0,96,0.00,,,0.00,,2013-07-31 12:12:00,
2013-07-31 08:22:00,71.0,70.0,30.14,NE,40,0.0,0.0,96,0.00,,,0.00,,2013-07-31 12:22:00,
2013-07-31 08:33:00,71.0,70.0,30.14,NE,40,0.0,0.0,96,0.00,,,0.00,,2013-07-31 12:33:00,
2013-07-31 08:43:00,72.0,70.0,30.14,NE,40,0.0,0.0,94,0.00,,,0.00,,2013-07-31 12:43:00,
2013-07-31 08:53:00,73.0,69.0,30.14,NE,40,0.0,0.0,88,0.00,,,0.00,,2013-07-31 12:53:00,
2013-07-31 09:02:00,73.0,69.0,30.14,NE,40,0.0,0.0,88,0.00,,,0.00,,2013-07-31 13:02:00,
2013-07-31 09:12:00,75.0,70.0,30.14,NE,40,0.0,0.0,85,0.00,,,0.00,,2013-07-31 13:12:00,
2013-07-31 09:22:00,76.0,70.0,30.14,NE,40,0.0,0.0,82,0.00,,,0.00,,2013-07-31 13:22:00,
2013-07-31 09:33:00,76.0,70.0,30.14,NE,40,0.0,0.0,82,0.00,,,0.00,,2013-07-31 13:33:00,
2013-07-31 09:43:00,77.0,70.0,30.14,NE,40,0.0,0.0,80,0.00,,,0.00,,2013-07-31 13:43:00,
2013-07-31 09:53:00,78.0,70.0,30.14,NE,40,0.0,0.0,77,0.00,,,0.00,,2013-07-31 13:53:00,
2013-07-31 10:02:00,78.0,70.0,30.14,NE,40,0.0,0.0,77,0.00,,,0.00,,2013-07-31 14:02:00,
2013-07-31 10:13:00,78.0,69.0,30.14,NE,40,1.0,1.0,75,0.00,,,0.00,,2013-07-31 14:13:00,
2013-07-31 10:23:00,78.0,69.0,30.14,WSW,251,1.0,1.0,74,0.00,,,0.00,,2013-07-31 14:23:00,
2013-07-31 10:34:00,79.0,70.0,30.13,SW,236,2.0,2.0,74,0.00,,,0.00,,2013-07-31 14:34:00,
2013-07-31 10:43:00,79.0,70.0,30.13,SW,236,2.0,2.0,74,0.00,,,0.00,,2013-07-31 14:43:00,
2013-07-31 10:53:00,79.0,70.0,30.13,West,269,0.0,0.0,74,0.00,,,0.00,,2013-07-31 14:53:00,
2013-07-31 11:02:00,80.0,69.0,30.13,West,263,1.0,1.0,70,0.00,,,0.00,,2013-07-31 15:02:00,
2013-07-31 11:12:00,80.0,69.0,30.13,West,263,1.0,1.0,70,0.00,,,0.00,,2013-07-31 15:12:00,
2013-07-31 11:22:00,81.0,71.0,30.13,WSW,251,0.0,0.0,71,0.00,,,0.00,,2013-07-31 15:22:00,
2013-07-31 11:33:00,81.0,71.0,30.13,WSW,251,0.0,0.0,71,0.00,,,0.00,,2013-07-31 15:33:00,
2013-07-31 11:44:00,81.0,70.0,30.12,WSW,245,0.0,0.0,69,0.00,,,0.00,,2013-07-31 15:44:00,
2013-07-31 11:53:00,80.0,70.0,30.12,WSW,244,1.0,1.0,72,0.00,,,0.00,,2013-07-31 15:53:00,
2013-07-31 12:02:00,81.0,71.0,30.12,SW,233,0.0,0.0,72,0.00,,,0.00,,2013-07-31 16:02:00,
2013-07-31 12:12:00,81.0,71.0,30.12,SW,233,0.0,0.0,72,0.00,,,0.00,,2013-07-31 16:12:00,
2013-07-31 12:22:00,81.0,70.0,30.12,SW,234,2.0,2.0,70,0.00,,,0.00,,2013-07-31 16:22:00,
2013-07-31 12:33:00,80.0,71.0,30.11,WSW,252,3.0,3.0,73,0.00,,,0.00,,2013-07-31 16:33:00,
2013-07-31 12:44:00,80.0,71.0,30.11,WSW,252,3.0,3.0,73,0.00,,,0.00,,2013-07-31 16:44:00,
2013-07-31 12:53:00,81.0,71.0,30.11,SW,224,3.0,3.0,71,0.00,,,0.00,,2013-07-31 16:53:00,
2013-07-31 13:03:00,82.0,69.0,30.11,West,259,3.0,3.0,66,0.00,,,0.00,,2013-07-31 17:03:00,
2013-07-31 13:13:00,82.0,69.0,30.11,West,259,3.0,3.0,66,0.00,,,0.00,,2013-07-31 17:13:00,
2013-07-31 13:22:00,81.0,71.0,30.10,West,267,3.0,3.0,71,0.00,,,0.00,,2013-07-31 17:22:00,
2013-07-31 13:33:00,81.0,71.0,30.10,West,267,3.0,3.0,71,0.00,,,0.00,,2013-07-31 17:33:00,
2013-07-31 13:43:00,81.0,71.0,30.10,WSW,239,3.0,3.0,71,0.00,,,0.00,,2013-07-31 17:43:00,
2013-07-31 13:53:00,81.0,71.0,30.10,WSW,239,3.0,3.0,71,0.00,,,0.00,,2013-07-31 17:53:00,
2013-07-31 14:02:00,81.0,71.0,30.10,WSW,239,3.0,3.0,71,0.00,,,0.00,,2013-07-31 18:02:00,
2013-07-31 14:13:00,81.0,71.0,30.10,WSW,239,3.0,3.0,71,0.00,,,0.00,,2013-07-31 18:13:00,
2013-07-31 15:23:00,79.0,70.0,30.08,SW,236,3.0,-999.0,74,-99.99,,,-99.99,,2013-07-31 19:23:00,
2013-07-31 15:33:00,79.0,70.0,30.08,SW,236,3.0,-999.0,74,-99.99,,,-99.99,,2013-07-31 19:33:00,
2013-07-31 15:43:00,79.0,69.0,30.08,West,261,4.0,-999.0,72,-99.99,,,-99.99,,2013-07-31 19:43:00,
2013-07-31 15:53:00,79.0,70.0,30.08,SW,225,2.0,-999.0,74,-99.99,,,-99.99,,2013-07-31 19:53:00,
2013-07-31 16:03:00,79.0,71.0,30.07,SW,230,4.0,4.0,77,0.00,,,0.00,,2013-07-31 20:03:00,
2013-07-31 16:12:00,79.0,71.0,30.07,SW,230,4.0,4.0,77,0.00,,,0.00,,2013-07-31 20:12:00,
2013-07-31 16:23:00,79.0,71.0,30.07,SW,221,4.0,4.0,77,0.00,,,0.00,,2013-07-31 20:23:00,
2013-07-31 16:43:00,79.0,71.0,30.06,WSW,240,3.0,3.0,76,0.00,,,0.00,,2013-07-31 20:43:00,
2013-07-31 16:53:00,79.0,70.0,30.06,West,274,5.0,5.0,75,0.00,,,0.00,,2013-07-31 20:53:00,
2013-07-31 17:03:00,79.0,70.0,30.06,West,274,5.0,5.0,75,0.00,,,0.00,,2013-07-31 21:03:00,
2013-07-31 17:13:00,79.0,70.0,30.06,West,274,5.0,5.0,75,0.00,,,0.00,,2013-07-31 21:13:00,
2013-07-31 17:22:00,79.0,70.0,30.06,West,274,5.0,5.0,75,0.00,,,0.00,,2013-07-31 21:22:00,
2013-07-31 17:32:00,79.0,70.0,30.06,West,274,5.0,5.0,75,0.00,,,0.00,,2013-07-31 21:32:00,